Overview Statistics Trail Chart Weather Telemetry Raw packets
 

This is the latest recevied weather packets stored in our database for station/object N8TWM-13. If no packets are shown the sender has not sent any weather packets the latest 10 day(s).

<< 1 2 3 4 5 >>
Time Temp. Humidity Pressure Rain* Wind** Luminosity Snow
1788614761 20.56° C 97% 1015 hPa 0 mm - 49 W/m² -
1788614455 20.56° C 97% 1015.1 hPa 0 mm - 32 W/m² -
1788614151 20.56° C 97% 1015.3 hPa 0 mm - 41 W/m² -
1788613846 20.56° C 97% 1015.1 hPa 0 mm - 48 W/m² -
1788613545 20.56° C 97% 1015.1 hPa 0 mm - 66 W/m² -
1788613240 20.56° C 97% 1015.1 hPa 0 mm - 57 W/m² -
1788612939 20.56° C 97% 1015 hPa 0 mm - 69 W/m² -
1788612635 20.56° C 97% 1014.9 hPa 0 mm - 66 W/m² -
1788612332 20.56° C 97% 1015 hPa 0 mm - 53 W/m² -
1788612027 20° C 97% 1015.1 hPa 0 mm - 36 W/m² -
1788611723 20° C 97% 1015.1 hPa 1.27 mm - 29 W/m² -
1788611420 20° C 97% 1015.2 hPa 1.27 mm - 34 W/m² -
1788611113 20° C 97% 1015.6 hPa 1.27 mm - 36 W/m² -
1788610824 20° C 97% 1015.2 hPa 0 mm - 37 W/m² -
1788610509 20° C 97% 1015.3 hPa 0 mm - 46 W/m² -
1788610203 20° C 97% 1015.2 hPa 0 mm - 49 W/m² -
1788609897 20° C 97% 1015 hPa 0 mm - 43 W/m² -
1788609592 19.44° C 97% 1014.9 hPa 0 mm - 42 W/m² -
1788609291 19.44° C 96% 1014.9 hPa 0 mm - 35 W/m² -
1788608986 19.44° C 96% 1014.7 hPa 0 mm - 23 W/m² -
1788608686 19.44° C 96% 1015 hPa 0 mm - 14 W/m² -
1788608384 19.44° C 96% 1014.8 hPa 1.78 mm - 12 W/m² -
1788608080 19.44° C 96% 1014.7 hPa 1.78 mm - 8 W/m² -
1788607775 19.44° C 96% 1014.5 hPa 1.78 mm - 4 W/m² -
1788607471 20° C 96% 1014.4 hPa 0 mm - 2 W/m² -

* Rain latest hour (hover to see other rain measurements)
** Current wind speed in m/s (hover to see current wind gust speed)